NSZ82F EKCH-EKYT

Flight info

Callsign NSZ82F
Flight time N/A
Altitude 16000
Route GOLGA T506 LAPMA L621 AAL
Aircraft B738/M-SDE2E3GHILRWXY/LB1

Departure

Time N/A
Airport Copenhagen Kastrup Airport (EKCH)

Arrival

Time 2026-05-08 13:54
Airport Aalborg Airport (EKYT)
Time Latitude Longitude Altitude Speed Heading
2026-05-08 13:45 56.93567 9.60195 7631 ft 357 kts 317°
2026-05-08 13:46 56.95360 9.57170 7458 ft 345 kts 317°
2026-05-08 13:46 56.97112 9.54211 7206 ft 337 kts 317°
2026-05-08 13:46 56.98816 9.51334 6956 ft 330 kts 317°
2026-05-08 13:46 57.00491 9.48509 6647 ft 325 kts 317°
2026-05-08 13:47 57.02138 9.45729 6314 ft 315 kts 317°
2026-05-08 13:47 57.03722 9.43059 5972 ft 303 kts 317°
2026-05-08 13:47 57.05247 9.40485 5636 ft 292 kts 317°
2026-05-08 13:47 57.06706 9.38023 5310 ft 285 kts 317°
2026-05-08 13:48 57.08192 9.35691 5003 ft 277 kts 328°
2026-05-08 13:48 57.09995 9.34775 4732 ft 267 kts
2026-05-08 13:48 57.11681 9.35858 4512 ft 253 kts 41°
2026-05-08 13:48 57.12608 9.38367 4423 ft 231 kts 79°
2026-05-08 13:49 57.12498 9.41182 4359 ft 218 kts 112°
2026-05-08 13:49 57.11943 9.43732 4358 ft 213 kts 114°
2026-05-08 13:49 57.11374 9.46276 4097 ft 216 kts 114°
2026-05-08 13:49 57.10801 9.48794 3844 ft 212 kts 114°
2026-05-08 13:50 57.10426 9.50442 3654 ft 211 kts 114°
2026-05-08 13:50 57.09862 9.52938 3319 ft 211 kts 114°
2026-05-08 13:50 57.09302 9.55432 2994 ft 209 kts 114°
2026-05-08 13:50 57.08740 9.57904 2694 ft 210 kts 114°
2026-05-08 13:51 57.08218 9.60387 2405 ft 204 kts 103°
2026-05-08 13:51 57.08183 9.62938 2201 ft 198 kts 90°
2026-05-08 13:51 57.08261 9.65401 1962 ft 188 kts 86°
2026-05-08 13:51 57.08419 9.67718 1726 ft 179 kts 85°
2026-05-08 13:52 57.08537 9.69927 1465 ft 168 kts 86°
2026-05-08 13:52 57.08660 9.71975 1248 ft 153 kts 86°
2026-05-08 13:52 57.08759 9.73790 1082 ft 136 kts 84°
2026-05-08 13:52 57.08880 9.75490 901 ft 132 kts 85°
2026-05-08 13:53 57.08986 9.77167 736 ft 134 kts 86°
2026-05-08 13:53 57.09094 9.78869 545 ft 134 kts 85°
2026-05-08 13:53 57.09210 9.80574 365 ft 133 kts 85°
2026-05-08 13:53 57.09312 9.82267 175 ft 133 kts 86°
2026-05-08 13:54 57.09408 9.83907 17 ft 122 kts 83°
2026-05-08 13:54 57.09474 9.84902 18 ft 38 kts 84°
2026-05-08 13:54 57.09505 9.85395 14 ft 38 kts 83°
2026-05-08 13:54 57.09487 9.85686 15 ft 18 kts 136°
2026-05-08 13:55 57.09370 9.85861 17 ft 23 kts 142°
2026-05-08 13:55 57.09244 9.86035 17 ft 22 kts 143°
2026-05-08 13:55 57.09002 9.86374 17 ft 21 kts 141°
2026-05-08 13:56 57.08866 9.86574 17 ft 32 kts 141°
2026-05-08 13:56 57.08703 9.86815 17 ft 27 kts 138°
2026-05-08 13:56 57.08583 9.87023 17 ft 13 kts 121°
2026-05-08 13:56 57.08595 9.87101 17 ft 7 kts 34°
2026-05-08 13:57 57.08604 9.87106 17 ft 0 kts 15°